Regional Weather Roundup
Issued by NWS

Home | Current Version | Previous Version | Graphics & Text | Print | Product List | Glossary On
Versions: 1 2 3 4 5 6 7 8 9 10 11 12 13 14 15 16 17 18 19 20 21 22 23 24 25 26 27 28 29 30 31 32 33 34 35 36 37 38 39 40 41 42 43 44 45 46 47 48 49 50
000
ASUS45 KTFX 261919
RWRMT
MONTANA HOURLY WEATHER ROUNDUP
NATIONAL WEATHER SERVICE GREAT FALLS MT
1219 PM MST THU FEB 26 2015

NOTE: "FAIR" INDICATES FEW OR NO CLOUDS BELOW 12000 FEET WITH NO
SIGNIFICANT WEATHER AND/OR OBSTRUCTIONS TO VISIBILITY.

* THESE STATIONS ARE NOT UNDER NWS QUALITY CONTROL. THEY DO NOT
   REPORT WEATHER SUCH AS PRECIPITATION OR FOG.

MTZ001>007-043-262000-
WEST OF THE DIVIDE
CITY           SKY/WX    TMP DP  RH WIND       PRES   REMARKS
KALISPELL      SUNNY     30  10  43 W5        30.18F WCI  25
MISSOULA       SUNNY     32  14  47 E20       30.16F WCI  20
BUTTE          PTCLDY    19  10  68 CALM      30.07F
MULLAN PASS    PTSUNNY   25  19  78 VRB5      30.00F WCI  19
* ANACONDA     PTCLDY    18  14  84 N3         N/A
* ESSEX        N/A       22   5  48 SE9G14     N/A   WCI  12
* EUREKA APT   PTCLDY    36  10  34 CALM      30.17F
* HAMILTON APT PTCLDY    32  16  52 N9        30.11F WCI  24
* LIBBY APT    SUNNY     37  19  48 CALM      30.15F
* LINCOLN      N/A       19   2  47 NE10G16    N/A   WCI   8
* LOOKOUT PASS N/A       32  19  59 SW6G12     N/A   WCI  26
* POLSON       N/A       31  18  59 W2         N/A
* RONAN APT    SUNNY     34  23  64 N6         N/A   WCI  29
* SEELEY LAKE  N/A       28  10  47 SW2G9      N/A
* THOMP F APT  PTCLDY    26  12  55 NW8G20     N/A   WCI  18
$$

MTZ008-052>055-262000-
SOUTHWEST MONTANA
CITY           SKY/WX    TMP DP  RH WIND       PRES   REMARKS
BOZEMAN        CLOUDY    18  10  71 S5        30.19F WCI  11
DILLON         PTSUNNY   21  12  68 NE12      30.08F WCI   9
* W YELLOWSTON SUNNY     22   6  50 VRB3G9     N/A
* THREE FORKS  PTCLDY    19  12  74 N/A        N/A
* BOULDER HILL N/A       10   5  80 NE9        N/A   WCI  -3
* MONIDA PASS  N/A       18  14  84 W14        N/A   WCI   4
* RAYNOLDS PAS N/A        8 -29  16 NE9        N/A   WCI  -5
* WHITEHALL    N/A       20   9  62 E11G19     N/A   WCI   8
* WISE RIVER   N/A       24   9  53 SE11G16    N/A   WCI  13
$$

MTZ009>010-012-014-046-048-049-054-262000-
EAST SLOPES AND CENTRAL MONTANA
CITY           SKY/WX    TMP DP  RH WIND       PRES   REMARKS
CUT BANK       CLOUDY     9   5  84 SE12      30.28F WCI  -6
GREAT FALLS    CLOUDY    12   9  88 E9        30.31F
HELENA         SUNNY     19   7  59 CALM      30.24F
MALMSTROM AFB  LGT SNOW  10   9  96 NE6       30.34F
* CONRAD       SUNNY      9   1  70 E9         N/A   WCI  -4
* DEARBORN     N/A       11   5  77 VRB6G11    N/A   WCI   1
* EAST GLACIER N/A        3  -1  83 E4         N/A
* MONARCH      N/A        9   1  70 E8         N/A   WCI  -3
* PENDROY      N/A        8   6  91 S11        N/A   WCI  -7
* ROGERS PASS  N/A       12   5  73 SE4        N/A
* SWEET GRASS  N/A        7   5  91 S18G24     N/A   WCI -12
* WHITE SULPH  N/A       16   1  51 NE5G10     N/A   WCI   8
$$

MTZ011-013-016-021-035-040-045-047-050-051-262000-
NORTH CENTRAL MONTANA
CITY           SKY/WX    TMP DP  RH WIND       PRES   REMARKS
HAVRE          SUNNY     16   3  56 E8        30.44F WCI   5
LEWISTOWN      PTSUNNY   12   1  61 E6        30.28F WCI   2
* N BAR RANCH  PTSUNNY    7   1  76 SE10      30.30F WCI  -7
* CHINOOK      SUNNY      9  -2  61 E13       30.50F WCI  -7
* FORT BENTON  SUNNY     14   3  61 E10       30.41F WCI   1
* CHESTER      N/A       12   3  67 SE6        N/A   WCI   2
* DENTON       N/A       13   3  64 SE9G14     N/A   WCI   1
* GEYSER       N/A       10   5  80 NE9        N/A   WCI  -3
* JUDITH GAP   N/A        7   3  83 SE12       N/A   WCI  -9
* LOMA         N/A       13   2  61 E9         N/A   WCI   1
$$

MTZ017>020-022>027-061-062-262000-
NORTHEAST MONTANA
CITY           SKY/WX    TMP DP  RH WIND       PRES   REMARKS
GLASGOW        SUNNY      7 -11  43 SW5       30.55F WCI  -2
GLENDIVE       SUNNY      9  -6  50 CALM      30.53F
JORDAN         SUNNY      9  -2  61 CALM      30.50F
SIDNEY         SUNNY      9  -2  61 NW5       30.60F
WOLF POINT     SUNNY      9  -9  43 W6        30.59F WCI  -1
* BEAVER HILL  N/A        5  -7  57 VRB6       N/A   WCI  -6
* CIRCLE       N/A       12  -4  48 N/A        N/A
* LINDSAY DVD  N/A        6  -2  69 N4         N/A
* NAVAJO       N/A        7  -8  50 W1         N/A
* PLENTYWOOD A SUNNY      3  -6  66 NW3       30.55F
* POPLAR APT   SUNNY    N/A N/A N/A N/A        N/A
* SACO         N/A        7  -6  55 E4         N/A
* SCOBEY APT   SUNNY      9  -9  43 N/A        N/A
$$

MTZ028>042-056>058-262000-
SOUTHCENTRAL AND SOUTHEAST MONTANA
CITY           SKY/WX    TMP DP  RH WIND       PRES   REMARKS
BAKER          SUNNY      9  -2  61 VRB5      30.48F
BILLINGS       PTCLDY    12   1  61 NE9       30.37F
LIVINGSTON     CLOUDY    12   3  67 E16       30.22F WCI  -5
MILES CITY     SUNNY      9   0  66 N3        30.51F
* BIG TIMBER A PTCLDY     9   3  76 E12       30.27F WCI  -6
* FORSYTH APT  SUNNY      9   0  66 E3        30.49F
* LAUREL APT   PTCLDY    12   0  58 NE8        N/A
* ROUNDUP APT  SUNNY     12  -2  53 N/A        N/A
* ALZADA       N/A        4  -5  66 W4         N/A
* HYSHAM       N/A       12  -2  53 E2G7       N/A
* LAME DEER    N/A        2  -3  79 NE4        N/A
* REED POINT   N/A       12   6  77 E10        N/A   WCI  -1
$$

REGIONAL REPORTS...DAKOTAS
CITY           SKY/WX    TMP DP  RH WIND       PRES   REMARKS
WILLISTON      SUNNY      5  -6  60 N5        30.59F WCI  -5
DICKINSON      SUNNY      7  -6  55 NW10      30.47F WCI  -7
BEACH          SUNNY      7  -2  66 NE6       30.50F WCI  -4
CROSBY         SUNNY      0  -8  68 NW8       30.59S WCI -14
TIOGA          SUNNY      0  -8  68 NW12      30.57S WCI -17
WATFORD CITY   SUNNY      1  -8  65 NW7       30.55F WCI -12
BISMARCK       SUNNY      7  -8  50 NW12      30.57F WCI  -9
GRAND FORKS    SUNNY      7  -6  55 NW13      30.55F WCI  -9
FARGO          SUNNY      3  -8  60 N14       30.57S WCI -15
BUFFALO SD     SUNNY      7  -8  50 N10       30.38F WCI  -7
RAPID CITY     SUNNY      7   0  73 N16       30.42S WCI -11
$$

REGIONAL REPORTS...WYOMING/IDAHO/WASHINGTON
CITY           SKY/WX    TMP DP  RH WIND       PRES   REMARKS
GILLETTE       CLOUDY     7   0  73 N5        30.31S WCI  -2
SHERIDAN       CLOUDY     9   0  66 CALM      30.34F
CODY           PTSUNNY   10   7  88 NE9       30.18F WCI  -3
YELLOWSTONE LA SUNNY     14   3  61 VRB3      29.95F
SALMON         PTSUNNY   36  19  50 NW5       30.03F WCI  32
MULLAN PASS    PTSUNNY   25  19  78 VRB5      30.00S WCI  19
SAND POINT     CLOUDY    39  25  57 CALM      30.13F
SPOKANE        CLOUDY    37  28  70 NE5       30.10S WCI  33
$$

REGIONAL REPORTS...ALBERTA
CITY           SKY/WX    TMP DP  RH WIND       PRES   REMARKS
CALGARY        N/A       12   7  80 S16G22    30.20F WCI  -5
LETHBRIDGE     PTCLDY    16   9  74 S10G22    30.30F WCI   4
MEDICINE HAT   N/A       10  -4  53 SE7       30.45F WCI  -1
EDMONTON       SNOW       9   0  66 SE14      30.29F WCI  -7
WATERTON GATE  N/A       14   5  67 NE6        N/A   WCI   5
CARDSTON       N/A       12   5  73 SE12G21    N/A   WCI  -2
MILK RIVER     N/A       12   7  80 S16G22     N/A   WCI  -5
$$

REGIONAL REPORTS...SASKATCHEWAN
CITY           SKY/WX    TMP DP  RH WIND       PRES   REMARKS
SWIFT CURRENT  SUNNY      5  -6  60 S9        30.46F WCI  -9
MOOSE JAW      N/A       -2 -11  65 NW3       30.60F
REGINA         N/A       -8 -13  78 W6        30.59F WCI -21
VAL MARIE      N/A       10  -4  53 SW5        N/A   WCI   1
ASSINIBOIA     N/A        0 -11  59 W8         N/A   WCI -14
CORONACH       N/A        7  -6  55 W5         N/A   WCI  -2

$$



USA.gov is the U.S. government's official web portal to all federal, state and local government web resources and services.